DW0805 Weather Reports


time (UTC)temp
C
wind
direction
speed
KPH
gust
KPH
rain 1hr
cm
rain 24hr
cm
rain mn
cm
humidity
%
barometer
mb
20260507045513 6 240 0.0 1.6 0.00 0.00 0.00 93 1014.9
20260507042513 4 235 0.0 0.0 0.00 0.00 0.00 94 1014.7
20260507041513 3 307 0.0 0.0 0.00 0.00 0.00 93 1014.6
20260507040513 3 244 0.0 0.0 0.00 0.00 0.00 93 1014.6
20260507031514 3 237 3.2 4.8 0.00 0.00 0.00 92 1014.3
20260507025513 3 236 0.0 3.2 0.00 0.00 0.00 92 1014.1
20260507024514 3 236 1.6 3.2 0.00 0.00 0.00 92 1014.1
20260507022514 3 236 0.0 0.0 0.00 0.00 0.00 92 1013.9
20260507021514 3 236 0.0 4.8 0.00 0.00 0.00 91 1013.9
20260507020513 3 236 0.0 3.2 0.00 0.00 0.00 91 1013.8
20260507015513 3 236 0.0 1.6 0.00 0.00 0.00 91 1013.7
20260507014513 3 236 0.0 0.0 0.00 0.00 0.00 91 1013.8
20260507013513 3 236 0.0 3.2 0.00 0.00 0.00 90 1013.7
20260507000513 6 235 1.6 9.7 0.00 0.00 0.00 88 1013.4
20260506235514 7 211 8.0 12.9 0.00 0.00 0.00 88 1013.4
20260506234514 7 189 4.8 11.3 0.00 0.00 0.00 88 1013.3
20260506232514 7 195 4.8 11.3 0.00 0.00 0.00 88 1013.4
20260506230513 7 187 4.8 9.7 0.00 0.00 0.00 87 1013.3
20260506225514 7 192 4.8 9.7 0.00 0.00 0.00 87 1013.2
20260506224514 7 196 3.2 11.3 0.00 0.00 0.00 86 1013.3
20260506222513 7 168 8.0 11.3 0.00 0.00 0.00 86 1013.1
20260506220514 7 160 4.8 12.9 0.00 0.00 0.00 85 1013.2
20260506215513 7 164 4.8 14.5 0.00 0.00 0.00 85 1013.1
20260506214513 7 166 4.8 14.5 0.00 0.00 0.00 85 1013.1
20260506211514 7 183 8.0 12.9 0.00 0.00 0.00 83 1013.0
20260506204513 8 161 4.8 9.7 0.00 0.00 0.00 80 1012.8
20260506203513 8 202 4.8 14.5 0.00 0.00 0.00 79 1012.7
20260506202513 8 198 6.4 14.5 0.00 0.00 0.00 78 1012.6
20260506201513 8 192 6.4 12.9 0.00 0.00 0.00 77 1012.6
20260506194512 9 170 4.8 16.1 0.00 0.00 0.00 74 1012.4
20260506193513 10 184 6.4 16.1 0.00 0.00 0.00 73 1012.2
20260506191512 10 177 9.7 14.5 0.00 0.00 0.00 69 1012.0
20260506183514 11 194 11.3 19.3 0.00 0.00 0.00 60 1011.6
20260506181513 11 200 8.0 16.1 0.00 0.00 0.00 58 1011.3
20260506175512 12 205 11.3 14.5 0.00 0.00 0.00 54 1011.1
20260506171512 13 204 9.7 19.3 0.00 0.00 0.00 54 1010.9
20260506170513 13 210 11.3 16.1 0.00 0.00 0.00 55 1010.9
20260506164512 13 226 11.3 16.1 0.00 0.00 0.00 58 1010.9
20260506160512 13 57 6.4 19.3 0.00 0.00 0.00 59 1010.7
20260506153512 13 12 8.0 19.3 0.00 0.00 0.00 61 1010.8
20260506152512 14 19 4.8 16.1 0.00 0.00 0.00 59 1010.7
20260506145512 15 357 8.0 16.1 0.00 0.00 0.00 56 1010.7
20260506144513 15 2 8.0 16.1 0.00 0.00 0.00 54 1010.7
20260506143512 15 15 6.4 19.3 0.00 0.00 0.00 58 1010.7
20260506142512 14 7 11.3 20.9 0.00 0.00 0.00 59 1010.7
20260506140512 15 11 4.8 20.9 0.00 0.00 0.00 60 1010.6
20260506133513 14 12 8.0 22.5 0.00 0.00 0.00 59 1010.4
20260506131513 15 354 8.0 20.9 0.00 0.00 0.00 58 1010.4
20260506125513 16 357 11.3 22.5 0.00 0.00 0.00 56 1010.3
20260506123513 15 357 12.9 24.1 0.00 0.00 0.00 53 1010.2
20260506121513 16 7 9.7 25.7 0.00 0.00 0.00 55 1010.3
20260506113514 16 0 8.0 16.1 0.00 0.00 0.00 53 1010.4
20260506112513 15 358 4.8 16.1 0.00 0.00 0.00 55 1010.5
20260506110512 15 18 4.8 19.3 0.00 0.00 0.00 55 1010.6
20260506104512 15 60 8.0 14.5 0.00 0.00 0.00 53 1010.6
20260506103513 14 33 8.0 19.3 0.00 0.00 0.00 55 1010.6
20260506102513 15 25 8.0 19.3 0.00 0.00 0.00 54 1010.7
20260506100512 15 8 8.0 16.1 0.00 0.00 0.00 55 1010.8
20260506095513 14 351 8.0 16.1 0.00 0.00 0.00 57 1010.7
20260506094512 14 20 4.8 14.5 0.00 0.00 0.00 58 1010.8
20260506092513 13 5 6.4 16.1 0.00 0.00 0.00 53 1010.8
20260506091513 15 333 8.0 14.5 0.00 0.00 0.00 51 1010.8
20260506090512 15 347 4.8 14.5 0.00 0.00 0.00 51 1010.7
20260506085512 15 27 9.7 20.9 0.00 0.00 0.00 49 1010.7
20260506084513 15 18 8.0 14.5 0.00 0.00 0.00 45 1010.7
20260506083512 15 19 6.4 14.5 0.00 0.00 0.00 48 1010.7
20260506081513 15 42 4.8 14.5 0.00 0.00 0.00 46 1010.6
20260506073513 13 41 6.4 19.3 0.00 0.00 0.00 48 1010.7
20260506070512 13 18 4.8 12.9 0.00 0.00 0.00 50 1010.7
20260506061513 11 38 4.8 12.9 0.00 0.00 0.00 56 1010.9
20260506060512 11 57 8.0 19.3 0.00 0.00 0.00 54 1011.0